When you browse on this site, cookies collect data to enhance your experience and personalize the content and advertising you see.
Visit our Privacy Policy to learn more. By continuing to use the site, you agree to this use of cookies and data.

Hourly Weather Mercaderes

Today, 7 August, Friday

Time Temperature Precipitation Wind Pressure Humidity
00:00 +21°C° 0 mm 1 mps 666 mmHg 83%
01:00 +21°C° 0 mm 1 mps 665 mmHg 84%
02:00 +21°C° 0 mm 1 mps 665 mmHg 83%
03:00 +20°C° 0 mm 1 mps 665 mmHg 82%
04:00 +20°C° 0 mm 1 mps 665 mmHg 82%
05:00 +21°C° 0 mm 1 mps 665 mmHg 81%
06:00 +21°C° 0 mm 1 mps 665 mmHg 79%
07:00 +21°C° 0 mm 1 mps 666 mmHg 78%
08:00 +23°C° 0 mm 1 mps 666 mmHg 70%
09:00 +25°C° 0 mm 1 mps 667 mmHg 62%
10:00 +27°C° 0 mm 1 mps 668 mmHg 54%
11:00 +28°C° 0 mm 1 mps 668 mmHg 52%
12:00 +29°C° 0 mm 1 mps 668 mmHg 49%
13:00 +30°C° 0 mm 2 mps 668 mmHg 47%
14:00 +29°C° 0.1 mm 2 mps 667 mmHg 48%
15:00 +29°C° 0.1 mm 2 mps 667 mmHg 50%
16:00 +28°C° 0.1 mm 2 mps 666 mmHg 51%
17:00 +27°C° 0.1 mm 2 mps 666 mmHg 58%
18:00 +25°C° 0.1 mm 2 mps 666 mmHg 65%
19:00 +23°C° 0.1 mm 2 mps 666 mmHg 72%
20:00 +23°C° 0 mm 1 mps 666 mmHg 75%
21:00 +22°C° 0 mm 1 mps 666 mmHg 78%
22:00 +22°C° 0 mm 1 mps 667 mmHg 81%
23:00 +22°C° 0 mm 1 mps 667 mmHg 82%

Tomorrow, 8 August, Saturday

Time Temperature Precipitation Wind Pressure Humidity
00:00 +21°C° 0 mm 1 mps 666 mmHg 83%
01:00 +21°C° 0 mm 1 mps 666 mmHg 84%
02:00 +21°C° 0 mm 1 mps 666 mmHg 85%
03:00 +21°C° 0 mm 1 mps 666 mmHg 85%
04:00 +20°C° 0 mm 1 mps 665 mmHg 86%
05:00 +21°C° 0 mm 1 mps 666 mmHg 85%
06:00 +21°C° 0 mm 1 mps 666 mmHg 84%
07:00 +21°C° 0 mm 1 mps 666 mmHg 82%
08:00 +23°C° 0 mm 1 mps 667 mmHg 74%
09:00 +25°C° 0 mm 1 mps 668 mmHg 65%
10:00 +27°C° 0 mm 1 mps 669 mmHg 57%
11:00 +29°C° 0 mm 1 mps 669 mmHg 52%
12:00 +30°C° 0 mm 2 mps 668 mmHg 47%
13:00 +31°C° 0 mm 2 mps 668 mmHg 42%
14:00 +31°C° 0 mm 2 mps 668 mmHg 43%
15:00 +30°C° 0 mm 2 mps 667 mmHg 45%
16:00 +29°C° 0 mm 3 mps 667 mmHg 46%
17:00 +27°C° 0 mm 2 mps 666 mmHg 55%
18:00 +25°C° 0 mm 2 mps 666 mmHg 63%
19:00 +23°C° 0 mm 2 mps 666 mmHg 71%
20:00 +23°C° 0 mm 2 mps 666 mmHg 73%
21:00 +22°C° 0 mm 1 mps 667 mmHg 76%
22:00 +22°C° 0 mm 1 mps 667 mmHg 78%
23:00 +22°C° 0 mm 1 mps 667 mmHg 78%

Day after tomorrow, 9 August, Sunday

Time Temperature Precipitation Wind Pressure Humidity
00:00 +21°C° 0 mm 1 mps 666 mmHg 79%
01:00 +21°C° 0 mm 1 mps 666 mmHg 79%
02:00 +21°C° 0 mm 1 mps 666 mmHg 80%
03:00 +20°C° 0 mm 1 mps 665 mmHg 80%
04:00 +20°C° 0 mm 1 mps 665 mmHg 81%
05:00 +21°C° 0 mm 1 mps 665 mmHg 80%
06:00 +21°C° 0 mm 1 mps 666 mmHg 79%
07:00 +22°C° 0 mm 1 mps 666 mmHg 78%
08:00 +24°C° 0 mm 1 mps 667 mmHg 69%
09:00 +26°C° 0 mm 1 mps 667 mmHg 60%
10:00 +29°C° 0 mm 1 mps 668 mmHg 51%
11:00 +30°C° 0 mm 1 mps 668 mmHg 48%
12:00 +31°C° 0 mm 1 mps 668 mmHg 45%
13:00 +32°C° 0 mm 1 mps 668 mmHg 42%
14:00 +31°C° 0.1 mm 2 mps 667 mmHg 47%
15:00 +30°C° 0.1 mm 2 mps 666 mmHg 51%
16:00 +29°C° 0.1 mm 2 mps 665 mmHg 55%
17:00 +27°C° 0.1 mm 2 mps 665 mmHg 63%
18:00 +25°C° 0.1 mm 2 mps 665 mmHg 72%
19:00 +23°C° 0.1 mm 2 mps 665 mmHg 80%
20:00 +22°C° 0 mm 1 mps 665 mmHg 80%
21:00 +22°C° 0 mm 1 mps 666 mmHg 81%
22:00 +22°C° 0 mm 1 mps 666 mmHg 82%
23:00 +21°C° 0 mm 1 mps 666 mmHg 83%

10 August, Monday

Time Temperature Precipitation Wind Pressure Humidity
00:00 +21°C° 0 mm 1 mps 666 mmHg 83%
01:00 +21°C° 0 mm 1 mps 665 mmHg 83%
02:00 +21°C° 0 mm 1 mps 665 mmHg 84%
03:00 +20°C° 0 mm 1 mps 664 mmHg 84%
04:00 +20°C° 0 mm 1 mps 664 mmHg 84%
05:00 +20°C° 0 mm 1 mps 664 mmHg 83%
06:00 +21°C° 0 mm 1 mps 665 mmHg 81%
07:00 +21°C° 0 mm 1 mps 665 mmHg 80%
08:00 +24°C° 0 mm 1 mps 666 mmHg 71%
09:00 +26°C° 0 mm 1 mps 667 mmHg 63%
10:00 +28°C° 0 mm 1 mps 667 mmHg 55%
11:00 +30°C° 0 mm 1 mps 667 mmHg 50%
12:00 +31°C° 0 mm 1 mps 667 mmHg 44%
13:00 +33°C° 0 mm 1 mps 666 mmHg 39%
14:00 +31°C° 0 mm 2 mps 665 mmHg 44%
15:00 +30°C° 0 mm 2 mps 665 mmHg 50%
16:00 +29°C° 0 mm 2 mps 664 mmHg 55%
17:00 +27°C° 0 mm 2 mps 664 mmHg 65%
18:00 +25°C° 0 mm 2 mps 664 mmHg 75%
19:00 +22°C° 0 mm 1 mps 663 mmHg 84%
20:00 +22°C° 0 mm 1 mps 664 mmHg 85%
21:00 +22°C° 0 mm 1 mps 665 mmHg 85%
22:00 +21°C° 0 mm 1 mps 665 mmHg 85%
23:00 +21°C° 0 mm 1 mps 665 mmHg 85%

11 August, Tuesday

Time Temperature Precipitation Wind Pressure Humidity
00:00 +21°C° 0 mm 1 mps 664 mmHg 86%
01:00 +18°C° 0 mm 0 mps 664 mmHg 86%
02:00 +18°C° 0 mm 0 mps 664 mmHg 86%
03:00 +18°C° 0 mm 0 mps 663 mmHg 86%
04:00 +18°C° 0 mm 0 mps 663 mmHg 85%
05:00 +18°C° 0 mm 0 mps 664 mmHg 84%
06:00 +21°C° 0 mm 1 mps 664 mmHg 82%
07:00 +21°C° 0 mm 1 mps 664 mmHg 80%
08:00 +23°C° 0 mm 1 mps 665 mmHg 72%
09:00 +26°C° 0 mm 1 mps 666 mmHg 64%
10:00 +28°C° 0 mm 1 mps 666 mmHg 55%
11:00 +29°C° 0 mm 1 mps 666 mmHg 51%
12:00 +31°C° 0 mm 1 mps 666 mmHg 46%
13:00 +32°C° 0 mm 1 mps 665 mmHg 42%
14:00 +31°C° 0 mm 2 mps 664 mmHg 48%
15:00 +30°C° 0 mm 2 mps 664 mmHg 54%
16:00 +28°C° 0 mm 2 mps 663 mmHg 61%
17:00 +26°C° 0.1 mm 2 mps 663 mmHg 69%
18:00 +24°C° 0.1 mm 2 mps 663 mmHg 77%
19:00 +22°C° 0.1 mm 1 mps 663 mmHg 85%
20:00 +22°C° 0 mm 1 mps 664 mmHg 86%
21:00 +22°C° 0 mm 1 mps 664 mmHg 86%
22:00 +21°C° 0 mm 1 mps 665 mmHg 87%
23:00 +21°C° 0 mm 1 mps 664 mmHg 87%

12 August, Wednesday

Time Temperature Precipitation Wind Pressure Humidity
00:00 +19°C° 0 mm 0 mps 664 mmHg 88%
01:00 +19°C° 0 mm 0 mps 664 mmHg 88%
02:00 +18°C° 0 mm 0 mps 663 mmHg 88%
03:00 +18°C° 0 mm 0 mps 663 mmHg 88%
04:00 +18°C° 0 mm 0 mps 663 mmHg 88%
05:00 +19°C° 0 mm 0 mps 663 mmHg 86%
06:00 +19°C° 0 mm 0 mps 664 mmHg 84%
07:00 +19°C° 0 mm 0 mps 664 mmHg 82%
08:00 +21°C° 0 mm 0 mps 665 mmHg 75%
09:00 +25°C° 0 mm 1 mps 665 mmHg 68%
10:00 +27°C° 0 mm 1 mps 666 mmHg 61%
11:00 +29°C° 0 mm 1 mps 666 mmHg 57%
12:00 +30°C° 0 mm 2 mps 665 mmHg 53%
13:00 +31°C° 0 mm 2 mps 665 mmHg 49%
14:00 +30°C° 0.3 mm 2 mps 664 mmHg 54%
15:00 +29°C° 0.3 mm 2 mps 664 mmHg 60%
16:00 +28°C° 0.3 mm 3 mps 663 mmHg 66%
17:00 +26°C° 0.8 mm 2 mps 663 mmHg 74%
18:00 +24°C° 0.8 mm 2 mps 663 mmHg 82%
19:00 +22°C° 0.8 mm 1 mps 663 mmHg 90%
20:00 +22°C° 0.1 mm 1 mps 663 mmHg 90%
21:00 +21°C° 0.1 mm 1 mps 664 mmHg 91%
22:00 +21°C° 0.1 mm 1 mps 664 mmHg 91%
23:00 +19°C° 0 mm 0 mps 664 mmHg 91%
Show more